When you browse on this site, cookies collect data to enhance your experience and personalize the content and advertising you see.
Visit our Privacy Policy to learn more. By continuing to use the site, you agree to this use of cookies and data.

Hourly Weather Lincoln

Today, 5 July, Sunday

Time Temperature Precipitation Wind Pressure Humidity
00:00 +17°C° 0 mm 8 mps 747 mmHg 77%
01:00 +18°C° 0 mm 8 mps 747 mmHg 77%
02:00 +18°C° 0 mm 9 mps 746 mmHg 77%
03:00 +18°C° 0 mm 9 mps 746 mmHg 77%
04:00 +17°C° 0.1 mm 9 mps 746 mmHg 76%
05:00 +16°C° 0.1 mm 9 mps 747 mmHg 76%
06:00 +16°C° 0 mm 8 mps 747 mmHg 78%
07:00 +16°C° 0 mm 8 mps 748 mmHg 73%
08:00 +16°C° 0 mm 9 mps 748 mmHg 68%
09:00 +16°C° 0 mm 10 mps 749 mmHg 63%
10:00 +16°C° 0 mm 9 mps 749 mmHg 63%
11:00 +16°C° 0 mm 9 mps 750 mmHg 63%
12:00 +16°C° 0 mm 8 mps 750 mmHg 63%
13:00 +16°C° 0.1 mm 8 mps 750 mmHg 63%
14:00 +16°C° 0.1 mm 8 mps 750 mmHg 63%
15:00 +16°C° 0.1 mm 8 mps 750 mmHg 63%
16:00 +15°C° 0.2 mm 8 mps 750 mmHg 65%
17:00 +15°C° 0.2 mm 9 mps 750 mmHg 67%
18:00 +15°C° 0.2 mm 9 mps 750 mmHg 68%
19:00 +13°C° 0 mm 8 mps 750 mmHg 69%
20:00 +12°C° 0 mm 8 mps 750 mmHg 69%
21:00 +11°C° 0 mm 8 mps 751 mmHg 69%
22:00 +11°C° 0 mm 7 mps 751 mmHg 70%
23:00 +11°C° 0 mm 7 mps 751 mmHg 72%

Tomorrow, 6 July, Monday

Time Temperature Precipitation Wind Pressure Humidity
00:00 +10°C° 0 mm 7 mps 751 mmHg 73%
01:00 +10°C° 0 mm 6 mps 752 mmHg 74%
02:00 +10°C° 0 mm 6 mps 752 mmHg 75%
03:00 +10°C° 0 mm 6 mps 753 mmHg 77%
04:00 +10°C° 0 mm 6 mps 753 mmHg 76%
05:00 +11°C° 0 mm 6 mps 754 mmHg 76%
06:00 +11°C° 0 mm 6 mps 754 mmHg 76%
07:00 +13°C° 0 mm 6 mps 755 mmHg 74%
08:00 +14°C° 0 mm 7 mps 755 mmHg 72%
09:00 +15°C° 0 mm 7 mps 756 mmHg 70%
10:00 +16°C° 0.2 mm 7 mps 757 mmHg 67%
11:00 +17°C° 0.2 mm 6 mps 757 mmHg 64%
12:00 +17°C° 0.2 mm 6 mps 758 mmHg 62%
13:00 +17°C° 0.2 mm 5 mps 758 mmHg 62%
14:00 +17°C° 0.2 mm 5 mps 759 mmHg 62%
15:00 +18°C° 0.2 mm 4 mps 759 mmHg 62%
16:00 +17°C° 0.1 mm 4 mps 760 mmHg 65%
17:00 +16°C° 0.1 mm 3 mps 760 mmHg 68%
18:00 +14°C° 0.1 mm 3 mps 760 mmHg 71%
19:00 +14°C° 0 mm 2 mps 761 mmHg 73%
20:00 +13°C° 0 mm 2 mps 761 mmHg 76%
21:00 +12°C° 0 mm 2 mps 762 mmHg 78%
22:00 +12°C° 0 mm 2 mps 761 mmHg 79%
23:00 +10°C° 0 mm 2 mps 761 mmHg 81%

Day after tomorrow, 7 July, Tuesday

Time Temperature Precipitation Wind Pressure Humidity
00:00 +9°C° 0 mm 2 mps 761 mmHg 82%
01:00 +9°C° 0 mm 2 mps 761 mmHg 84%
02:00 +8°C° 0 mm 3 mps 761 mmHg 86%
03:00 +8°C° 0 mm 3 mps 760 mmHg 87%
04:00 +9°C° 0 mm 3 mps 760 mmHg 85%
05:00 +10°C° 0 mm 3 mps 760 mmHg 82%
06:00 +11°C° 0 mm 3 mps 759 mmHg 80%
07:00 +12°C° 0 mm 4 mps 759 mmHg 79%
08:00 +13°C° 0 mm 5 mps 759 mmHg 77%
09:00 +15°C° 0 mm 5 mps 759 mmHg 76%
10:00 +14°C° 0.4 mm 5 mps 759 mmHg 79%
11:00 +13°C° 0.4 mm 5 mps 758 mmHg 83%
12:00 +12°C° 0.4 mm 5 mps 758 mmHg 86%
13:00 +12°C° 0.3 mm 4 mps 758 mmHg 87%
14:00 +12°C° 0.3 mm 3 mps 757 mmHg 88%
15:00 +12°C° 0.3 mm 3 mps 757 mmHg 89%
16:00 +12°C° 0.8 mm 3 mps 756 mmHg 91%
17:00 +12°C° 0.8 mm 3 mps 756 mmHg 93%
18:00 +12°C° 0.8 mm 3 mps 755 mmHg 95%
19:00 +12°C° 0.1 mm 3 mps 755 mmHg 95%
20:00 +13°C° 0.1 mm 3 mps 755 mmHg 95%
21:00 +13°C° 0.1 mm 4 mps 755 mmHg 94%
22:00 +13°C° 0.1 mm 3 mps 755 mmHg 94%
23:00 +13°C° 0.1 mm 3 mps 755 mmHg 95%

8 July, Wednesday

Time Temperature Precipitation Wind Pressure Humidity
00:00 +13°C° 0.1 mm 3 mps 755 mmHg 95%
01:00 +13°C° 0 mm 3 mps 755 mmHg 96%
02:00 +12°C° 0 mm 3 mps 755 mmHg 96%
03:00 +13°C° 0 mm 2 mps 755 mmHg 97%
04:00 +12°C° 0 mm 3 mps 756 mmHg 96%
05:00 +12°C° 0 mm 3 mps 756 mmHg 95%
06:00 +12°C° 0 mm 3 mps 756 mmHg 95%
07:00 +12°C° 0 mm 3 mps 757 mmHg 92%
08:00 +12°C° 0 mm 3 mps 757 mmHg 90%
09:00 +13°C° 0 mm 3 mps 758 mmHg 88%
10:00 +14°C° 0 mm 3 mps 758 mmHg 84%
11:00 +15°C° 0 mm 2 mps 758 mmHg 80%
12:00 +16°C° 0 mm 2 mps 759 mmHg 75%
13:00 +17°C° 0.1 mm 2 mps 759 mmHg 74%
14:00 +17°C° 0.1 mm 2 mps 759 mmHg 73%
15:00 +17°C° 0.1 mm 2 mps 759 mmHg 72%
16:00 +17°C° 0.1 mm 2 mps 759 mmHg 75%
17:00 +17°C° 0.1 mm 2 mps 759 mmHg 78%
18:00 +16°C° 0.1 mm 2 mps 759 mmHg 81%
19:00 +14°C° 0 mm 3 mps 759 mmHg 82%
20:00 +13°C° 0 mm 3 mps 759 mmHg 84%
21:00 +13°C° 0 mm 3 mps 759 mmHg 86%
22:00 +13°C° 0 mm 4 mps 758 mmHg 87%
23:00 +13°C° 0 mm 4 mps 758 mmHg 89%

9 July, Thursday

Time Temperature Precipitation Wind Pressure Humidity
00:00 +13°C° 0 mm 4 mps 758 mmHg 91%
01:00 +13°C° 0 mm 4 mps 757 mmHg 90%
02:00 +13°C° 0 mm 4 mps 757 mmHg 89%
03:00 +13°C° 0 mm 4 mps 756 mmHg 88%
04:00 +14°C° 0 mm 5 mps 756 mmHg 87%
05:00 +14°C° 0 mm 5 mps 755 mmHg 86%
06:00 +15°C° 0 mm 6 mps 755 mmHg 86%
07:00 +16°C° 0 mm 6 mps 754 mmHg 84%
08:00 +16°C° 0 mm 7 mps 754 mmHg 83%
09:00 +17°C° 0 mm 7 mps 753 mmHg 81%
10:00 +18°C° 0 mm 8 mps 753 mmHg 79%
11:00 +18°C° 0 mm 8 mps 752 mmHg 77%
12:00 +19°C° 0 mm 9 mps 752 mmHg 75%
13:00 +20°C° 0.2 mm 8 mps 752 mmHg 76%
14:00 +20°C° 0.2 mm 8 mps 751 mmHg 76%
15:00 +20°C° 0.2 mm 8 mps 751 mmHg 77%
16:00 +18°C° 0.1 mm 8 mps 751 mmHg 75%
17:00 +17°C° 0.1 mm 7 mps 751 mmHg 74%
18:00 +16°C° 0.1 mm 7 mps 752 mmHg 72%
19:00 +14°C° 0 mm 7 mps 752 mmHg 72%
20:00 +13°C° 0 mm 6 mps 753 mmHg 73%
21:00 +12°C° 0 mm 5 mps 753 mmHg 73%
22:00 +10°C° 0 mm 5 mps 753 mmHg 74%
23:00 +10°C° 0 mm 5 mps 754 mmHg 75%

10 July, Friday

Time Temperature Precipitation Wind Pressure Humidity
00:00 +11°C° 0 mm 4 mps 754 mmHg 76%
01:00 +10°C° 0 mm 4 mps 754 mmHg 77%
02:00 +10°C° 0 mm 3 mps 755 mmHg 78%
03:00 +10°C° 0 mm 3 mps 755 mmHg 79%
04:00 +11°C° 0 mm 3 mps 755 mmHg 78%
05:00 +11°C° 0 mm 3 mps 755 mmHg 78%
06:00 +12°C° 0 mm 3 mps 756 mmHg 77%
07:00 +13°C° 0.1 mm 3 mps 756 mmHg 73%
08:00 +14°C° 0.1 mm 4 mps 756 mmHg 69%
09:00 +15°C° 0.1 mm 4 mps 757 mmHg 66%
10:00 +15°C° 0.4 mm 4 mps 757 mmHg 64%
11:00 +17°C° 0.4 mm 4 mps 757 mmHg 62%
12:00 +17°C° 0.4 mm 4 mps 757 mmHg 61%
13:00 +18°C° 0.4 mm 4 mps 758 mmHg 60%
14:00 +18°C° 0.4 mm 4 mps 758 mmHg 59%
15:00 +18°C° 0.4 mm 4 mps 758 mmHg 58%
16:00 +17°C° 0.5 mm 3 mps 758 mmHg 63%
17:00 +17°C° 0.5 mm 3 mps 759 mmHg 68%
18:00 +16°C° 0.5 mm 3 mps 759 mmHg 72%
19:00 +15°C° 0.1 mm 2 mps 760 mmHg 76%
20:00 +13°C° 0.1 mm 2 mps 760 mmHg 80%
21:00 +12°C° 0.1 mm 1 mps 761 mmHg 84%
22:00 +11°C° 0 mm 1 mps 761 mmHg 86%
23:00 +10°C° 0 mm 2 mps 761 mmHg 87%
Show more